[[{"header":{"parameterUnit":"m.s-1","parameterCategory":1,"la1":30.2992,"la2":30.254,"lo1":-89.0895,"lo2":-89.0443,"dy":0.0025,"dx":0.0025,"nx":19,"ny":19,"refTime":"2026-04-23T21:00:00:Z","depth":0,"parameterNumber":2,"parameterNumberName":"U-component_of_WINDS"},"data":[0,0,0,-2.0374,-2.0376,-2.0499,-2.0499,-2.0646,-2.0647,0,0,0,0,0,0,0,0,0,0,0,-2.0329,-2.033,-2.0373,-2.0376,-2.0499,-2.0499,-2.0645,-2.0647,0,0,0,0,0,0,0,0,0,0,0,-2.0329,-2.033,-2.0331,-2.0377,-2.0499,-2.0499,-2.0645,-2.0557,0,0,0,0,0,0,0,0,0,0,-2.0439,-2.0391,-2.033,-2.0331,-2.0377,-2.0499,-2.05,-2.0553,-2.0562,-2.0585,0,-2.0602,0,-2.0627,-2.0656,-2.0656,0,0,0,-2.0382,-2.0382,-2.0423,-2.0331,-2.0378,-2.0498,-2.0445,-2.0558,-2.0569,-2.0598,-2.0604,-2.061,-2.0629,-2.0657,-2.0657,-2.0766,-2.0767,0,0,-2.0375,-2.0347,-2.0415,-2.0429,-2.0408,-2.0441,-2.0449,-2.0565,-2.0571,-2.0605,-2.0614,-2.0631,-2.0658,-2.0659,-2.0766,-2.0767,0,0,0,-2.0352,-2.0342,-2.038,-2.0423,-2.0446,-2.0445,-2.0454,-2.0565,-2.058,-2.0615,-2.0633,-2.0658,-2.066,-2.0766,-2.0766,-2.0749,0,0,0,-2.0348,-2.0329,-2.0377,-2.0361,-2.0443,-2.0507,-2.0451,-2.0572,-2.0586,-2.0632,-2.0658,-2.0661,-2.0766,-2.0766,-2.0749,-2.0745,0,0,0,-2.0324,-2.0326,-2.0341,-2.0359,-2.0411,-2.0506,-2.0527,-2.0576,-2.0597,-2.0656,-2.0662,-2.0766,-2.0766,-2.0749,-2.0745,-2.0765,0,0,0,-2.029,-2.0324,-2.034,-2.0385,-2.0409,-2.0494,-2.0527,-2.0591,-2.0641,-2.0659,-2.0766,-2.0766,-2.0749,-2.0746,-2.0765,-2.0776,-2.0778,0,0,-2.0317,-2.0326,-2.0355,-2.0373,-2.0447,-2.0478,-2.055,-2.0623,-2.0655,-2.0728,-2.0731,-2.0749,-2.0745,-2.0765,-2.0802,-2.0804,0,0,0,-2.0355,-2.0375,-2.0401,-2.0446,-2.0502,-2.0549,-2.0613,-2.0641,-2.0704,-2.0686,-2.0763,-2.0762,-2.0775,-2.0781,-2.0783,-2.0795,-2.0768,-2.0768,-2.0768,-2.0352,-2.0391,-2.0441,-2.0495,-2.0539,-2.0605,-2.0644,-2.0692,-2.0719,-2.0737,-2.0758,-2.0776,-2.0782,-2.0783,-2.0796,-2.0768,-2.0768,-2.0768,-2.0768,-2.0394,-2.0429,-2.0464,-2.0525,-2.0567,-2.062,-2.0686,-2.0703,-2.0759,-2.0763,-2.0776,-2.0775,-2.0784,-2.0797,-2.0767,-2.0767,-2.0767,-2.0768,-2.0768,-2.0396,-2.0419,-2.0451,-2.0521,-2.0571,-2.0626,-2.0677,-2.0714,-2.0749,-2.0762,-2.0789,-2.0789,-2.0793,-2.0773,-2.0773,-2.0773,-2.0773,-2.0773,-2.0773,-2.0384,-2.0421,-2.0459,-2.0522,-2.0556,-2.0606,-2.0674,-2.0709,-2.0758,-2.0781,-2.0781,-2.0806,-2.0778,-2.0769,-2.0774,-2.0774,-2.0774,-2.0773,-2.0773,-2.0411,-2.0411,-2.0469,-2.0504,-2.0581,-2.0628,-2.0675,-2.0744,-2.0779,-2.0803,-2.0826,-2.0799,-2.0811,-2.0811,-2.0804,-2.0818,-2.0818,-2.0818,-2.0818,-2.0411,-2.0421,-2.049,-2.0542,-2.0598,-2.0646,-2.0713,-2.0767,-2.0823,-2.0848,-2.0851,-2.0846,-2.0844,-2.0857,-2.0855,-2.0849,-2.0875,-2.0875,-2.0875,-2.043,-2.0447,-2.0495,-2.0549,-2.0613,-2.0667,-2.0731,-2.0791,-2.0855,-2.0878,-2.0867,-2.0865,-2.0857,-2.0852,-2.0872,-2.0869,-2.0859,0,0]},{"header":{"parameterUnit":"m.s-1","parameterCategory":1,"la1":30.2992,"la2":30.254,"lo1":-89.0895,"lo2":-89.0443,"dy":0.0025,"dx":0.0025,"nx":19,"ny":19,"refTime":"2026-04-23T21:00:00:Z","depth":0,"parameterNumber":3,"parameterNumberName":"V-component_of_WINDS"},"data":[0,0,0,3.4843,3.4844,3.4928,3.4928,3.5011,3.5012,0,0,0,0,0,0,0,0,0,0,0,3.4803,3.4803,3.4842,3.4844,3.4927,3.4928,3.5011,3.5012,0,0,0,0,0,0,0,0,0,0,0,3.4803,3.4803,3.4803,3.4844,3.4927,3.4928,3.5011,3.4957,0,0,0,0,0,0,0,0,0,0,3.488,3.4828,3.4803,3.4803,3.4845,3.4927,3.4928,3.4954,3.496,3.4963,0,3.4962,0,3.4988,3.5016,3.5016,0,0,0,3.4855,3.4823,3.4859,3.4803,3.4845,3.4927,3.4893,3.4958,3.4964,3.4971,3.4963,3.4967,3.4989,3.5016,3.5017,3.4998,3.4997,0,0,3.4851,3.481,3.4855,3.4863,3.4848,3.489,3.4895,3.4962,3.4951,3.4963,3.4969,3.4991,3.5017,3.5017,3.4998,3.4997,0,0,0,3.483,3.4806,3.4841,3.4859,3.4875,3.4892,3.4898,3.4948,3.4963,3.497,3.4992,3.5017,3.5018,3.4999,3.4998,3.4928,0,0,0,3.4828,3.4794,3.4838,3.4814,3.4874,3.4913,3.4883,3.4959,3.4967,3.4991,3.5017,3.5018,3.5,3.4998,3.4931,3.4901,0,0,0,3.4802,3.4791,3.4798,3.4812,3.4846,3.4913,3.4932,3.4961,3.498,3.5016,3.5019,3.5,3.4999,3.4934,3.4906,3.4884,0,0,0,3.4764,3.4734,3.4796,3.4772,3.4845,3.4868,3.4932,3.4951,3.4974,3.5017,3.5,3.4998,3.4935,3.4909,3.4887,3.4858,3.4842,0,0,3.4703,3.4725,3.4714,3.4772,3.4774,3.4859,3.4851,3.491,3.4952,3.498,3.498,3.493,3.4906,3.4885,3.4767,3.4754,0,0,0,3.4681,3.4672,3.4682,3.4702,3.4747,3.4783,3.4849,3.4871,3.4898,3.4958,3.4918,3.4905,3.4894,3.4882,3.4871,3.4864,3.4991,3.4991,3.4991,3.4536,3.4591,3.4576,3.4641,3.466,3.4728,3.4749,3.4791,3.484,3.483,3.4838,3.476,3.4745,3.4737,3.4729,3.4828,3.4828,3.4827,3.4827,3.4453,3.4449,3.4517,3.4526,3.4585,3.4594,3.466,3.4695,3.4712,3.4758,3.4751,3.4796,3.472,3.4717,3.4822,3.4823,3.4824,3.4824,3.4825,3.4363,3.4371,3.4399,3.4435,3.4456,3.4524,3.4538,3.4591,3.4641,3.4634,3.4649,3.465,3.4658,3.4637,3.4637,3.4637,3.4637,3.4636,3.4636,3.4259,3.4294,3.4299,3.4345,3.4365,3.4399,3.4469,3.4491,3.4529,3.4566,3.4567,3.4617,3.4703,3.4723,3.4632,3.4633,3.4633,3.4634,3.4634,3.4153,3.4186,3.4193,3.4214,3.4274,3.4292,3.436,3.44,3.4426,3.4431,3.4484,3.454,3.4566,3.4575,3.4592,3.4472,3.4472,3.4472,3.4472,3.4078,3.4097,3.4117,3.4146,3.4181,3.4244,3.4252,3.4306,3.4368,3.4388,3.4413,3.4441,3.4448,3.447,3.4481,3.4498,3.4357,3.4357,3.4357,3.4016,3.4041,3.4036,3.4097,3.4148,3.4191,3.42,3.4232,3.4309,3.4354,3.4405,3.4409,3.4455,3.4466,3.451,3.4527,3.4559,0,0]}]]